AKST,Max TemperatureF,Mean TemperatureF,Min TemperatureF,Max Dew PointF,MeanDew PointF,Min DewpointF,Max Humidity, Mean Humidity, Min Humidity, Max Sea Level PressureIn, Mean Sea Level PressureIn, Min Sea Level PressureIn, Max VisibilityMiles, Mean VisibilityMiles, Min VisibilityMiles, Max Wind SpeedMPH, Mean Wind SpeedMPH, Max Gust SpeedMPH,PrecipitationIn, CloudCover, Events, WindDirDegrees
2013-11-1,46,44,41,39,37,36,86,80,73,30.08,30.04,29.97,10,9,5,17,8,23,0.32,7,Rain,99
2013-11-2,46,42,37,38,36,33,93,83,66,30.09,30.08,30.06,10,10,10,7,3,,0.00,4,,86
2013-11-3,48,42,35,36,32,30,89,71,56,30.06,29.99,29.81,10,10,10,20,5,30,0.00,1,,66
2013-11-4,46,45,44,40,36,31,82,70,56,29.75,29.61,29.51,10,9,4,113,20,37,0.17,7,Rain,108
2013-11-5,46,45,44,40,39,38,82,78,73,29.73,29.65,29.62,10,8,2,20,13,26,1.22,8,Rain,112
2013-11-6,48,45,42,42,39,38,86,79,71,29.91,29.84,29.73,10,8,5,17,11,24,0.83,8,Rain,103
2013-11-7,46,42,37,39,38,35,89,84,76,29.89,29.80,29.75,10,10,5,8,3,,0.06,6,Rain,76
2013-11-8,46,40,35,37,33,28,86,74,58,30.00,29.83,29.75,10,10,10,10,4,,0.00,6,,81
2013-11-9,44,38,33,32,30,28,89,77,55,30.30,30.19,30.02,10,10,10,10,4,,0.00,1,,54
2013-11-10,44,40,35,37,34,30,86,77,60,30.32,30.27,30.19,10,10,9,9,3,,0.07,8,Rain,94
2013-11-11,44,40,35,37,34,31,89,79,68,30.16,29.89,29.72,10,10,8,12,2,,0.04,4,Rain,10
2013-11-12,46,45,44,44,42,39,93,85,77,29.94,29.80,29.69,10,8,3,10,4,,0.23,8,Rain,28
2013-11-13,48,45,42,44,41,35,93,85,74,30.28,30.11,29.95,10,7,1,17,6,,0.22,8,Rain,112
2013-11-14,48,45,42,45,42,37,90,86,74,30.27,29.95,29.54,10,5,1,21,10,26,1.19,8,Rain,211
2013-11-15,48,41,34,42,28,17,86,59,34,29.78,29.64,29.47,10,10,6,22,10,30,0.15,4,Rain,352
2013-11-16,37,34,30,29,20,8,82,59,38,29.70,29.60,29.56,10,9,4,13,6,17,0.00,8,Snow,60
2013-11-17,30,26,21,7,3,0,39,35,30,29.87,29.71,29.57,10,10,10,12,6,,0.00,3,,47
2013-11-18,24,22,19,5,2,0,52,43,38,29.97,29.94,29.89,10,10,10,12,8,17,0.00,1,,79
2013-11-19,37,28,19,28,18,4,86,70,46,29.96,29.87,29.83,10,5,0,23,13,31,0.07,7,Fog-Snow,107
2013-11-20,39,34,28,33,28,20,89,81,61,30.07,30.03,29.86,10,4,0,28,13,41,0.38,7,Fog-Rain-Snow,93
2013-11-21,48,44,39,46,43,36,93,88,79,30.14,29.98,29.86,8,3,1,29,15,37,3.10,8,Rain,190
2013-11-22,51,48,44,45,39,37,80,73,63,30.15,29.98,29.74,10,8,5,31,23,46,0.60,8,Rain,127
2013-11-23,46,40,34,44,36,30,90,77,56,30.28,29.98,29.73,10,8,2,28,15,36,0.37,6,Rain,82
2013-11-24,45,34,30,33,29,27,89,78,63,30.28,30.14,30.00,10,10,10,22,5,,0.01,4,Rain,13
2013-11-25,50,47,44,43,38,33,90,73,52,29.99,29.87,29.76,10,9,4,22,16,34,0.18,8,Rain,139
2013-11-26,48,44,39,43,40,36,93,88,77,30.00,29.93,29.86,10,10,6,10,4,,0.03,7,Rain,21
2013-11-27,53,49,45,44,40,38,90,77,57,29.85,29.58,29.45,10,8,4,22,12,30,0.84,8,Rain,178
2013-11-28,45,43,41,39,36,34,86,77,65,29.95,29.85,29.65,10,9,4,23,14,31,0.33,8,Rain,198
2013-11-29,43,40,37,41,33,22,93,75,49,29.96,29.80,29.70,10,7,2,20,12,23,0.94,8,Rain,316
2013-11-30,39,36,34,32,31,24,92,83,53,29.99,29.85,29.73,10,6,2,13,7,,0.17,8,Rain-Snow,47